Regional Weather Roundup
Issued by NWS Boston, MA

Current Version | Previous Version | Text Only | Print | Product List | Glossary On
Versions: 1 2 3 4 5 6 7 8 9 10 11 12 13 14 15 16 17 18 19 20 21 22 23 24 25 26 27 28
000 ASUS41 KBOX 310910 RWRBOX REGIONAL WEATHER ROUNDUP NATIONAL WEATHER SERVICE TAUNTON MA 500 AM EDT FRI OCT 31 2014 NOTE: "FAIR" INDICATES FEW OR NO CLOUDS BELOW 12,000 FEET WITH NO SIGNIFICANT WEATHER AND/OR OBSTRUCTIONS TO VISIBILITY. THE FOLLOWING OBSERVATION LOCATIONS DO NOT REPORT PRESENT WEATHER...PROVINCETOWN... SMITHFIELD...BLOCK ISLAND...KEENE...AND OXFORD. MAZALL-311000- EASTERN MASSACHUSETTS CITY SKY/WX TMP DP RH WIND PRES REMARKS BOSTON CLOUDY 46 37 71 N6 30.01S BEVERLY CLOUDY 42 36 79 N5 30.00S LAWRENCE CLOUDY 41 36 82 NE6 30.03S BEDFORD CLOUDY 39 37 92 CALM 30.00S BLUE HILL N/A 44 38 79 NE9 29.98S NORWOOD CLOUDY 40 39 97 CALM 30.00S MARSHFIELD NOT AVBL PLYMOUTH CLOUDY 49 41 74 NE7 30.00R TAUNTON CLOUDY 41 39 93 CALM 30.00R NEW BEDFORD CLOUDY 43 39 86 N5 29.99R $$ MAZALL-311000- CAPE COD AND THE ISLANDS CITY SKY/WX TMP DP RH WIND PRES REMARKS FALMOUTH CLOUDY 48 45 87 NE7 29.98S HYANNIS CLOUDY 46 43 89 CALM 29.97S CHATHAM PTCLDY 50 45 83 NE5 29.99R PROVINCETOWN CLOUDY 48 -2 12 NE10G16 30.00S NANTUCKET CLEAR 45 41 86 NE5 29.97S MARTHAS VNYRD CLOUDY 40 39 97 CALM 29.98R $$ MAZALL-311000- CENTRAL AND WESTERN MASSACHUSETTS CITY SKY/WX TMP DP RH WIND PRES REMARKS WORCESTER CLOUDY 40 34 79 N6 29.99S FITCHBURG CLOUDY 42 36 79 NW5 30.03R ORANGE CLOUDY 32 32 100 CALM 30.02R FOG SPRINGFIELD CLEAR 29 28 96 CALM 30.01S WESTFIELD CLEAR 31 30 96 CALM 30.02R NORTH ADAMS CLEAR 30 29 96 CALM 30.03R PITTSFIELD PTCLDY 29 28 96 CALM 30.00R $$ RIZALL-311000- RHODE ISLAND CITY SKY/WX TMP DP RH WIND PRES REMARKS PROVIDENCE CLOUDY 44 37 76 N7 30.00S NEWPORT CLEAR 45 37 73 N6 29.98S BLOCK ISLAND CLEAR 46 39 76 N6 29.98S SMITHFIELD CLOUDY 43 30 61 N7 29.99S WESTERLY PTCLDY 40 36 86 N5 30.00S $$ CTZALL-311000- CONNECTICUT CITY SKY/WX TMP DP RH WIND PRES REMARKS BRADLEY INTL PTCLDY 35 31 85 CALM 30.01S HARTFORD PTCLDY 33 32 96 SE6 30.02S FOG WCI 28 BRIDGEPORT CLOUDY 46 32 58 N10 30.00S DANBURY CLOUDY 43 28 55 NE3 30.02F GROTON CLEAR 40 36 86 N9 29.99S NEW HAVEN MOCLDY 42 34 73 N10 30.00F CHESTER NOT AVBL MERIDEN CLEAR 34 31 88 CALM 30.02S WILLIMANTIC MOCLDY 37 35 92 CALM 30.01S OXFORD CLOUDY 41 27 56 NE7 30.02S $$ MEZ002-015-021-024-NHZ003-005-008-011-012-014-VTZ005-008-311000- NORTHERN NEW ENGLAND CITY SKY/WX TMP DP RH WIND PRES REMARKS PORTLAND ME CLOUDY 37 34 89 NW3 30.03R BANGOR ME CLOUDY 35 33 92 CALM 30.02R CONCORD NH CLOUDY 39 36 89 CALM 30.02S MANCHESTER NH MOCLDY 43 35 73 CALM 30.01S NASHUA NH MOCLDY 40 39 96 CALM 30.03S PORTSMOUTH NH CLOUDY 40 36 85 W3 30.01S JAFFREY NH CLOUDY 35 33 92 CALM 30.01R KEENE NH CLOUDY 37 30 75 CALM 30.02S BURLINGTON VT CLOUDY 41 33 73 CALM 30.03S MT. WASHINGTON FOG 18 18 100 W14 N/A VSB 1/16WCI 4 $$ NYZ052-076-311000- EASTERN NEW YORK CITY SKY/WX TMP DP RH WIND PRES REMARKS ALBANY MOCLDY 35 31 85 CALM 30.04S NEW YORK CITY PTCLDY 45 34 65 N7 30.00F $$ ANZALL-311000- MARINE OBSERVATIONS STATION/POSITION TIME TEMP WIND PRES VSBY WAVE AIR SEA DIR/SP/G HT/PER (UTC) (F) (DEG/KT/KT) (MB) (MI) (FT/S) BOSTON BUOY 0850 49 54 40/ 14/ 16 1015.9R 2/ 4 BUZZARDS BAY 0800 360/ 10/ 11 1015.8R NANTUCKET SOUND 0850 54 57 30/ 10/ 14 1014.7R 1/ 7 MASS BAY-STELLWA 0804 49 54 30/ 14/ 16 N/A 1 7/8 3/ 5 ISLE OF SHOALS 0900 48 40/ 12/ 14 1015.7R S OF BLOCK IS 0808 61 N/A 2/ 7 $$ ......................KEY......................... SKY/WX - SKY CONDITION/PRESENT WEATHER TMP - TEMPERATURE IN FAHRENHEIT DWPT - DEWPOINT IN FAHRENHEIT RH - RELATIVE HUMIDITY IN PERCENT WIND - DIRECTION AND SPEED IN MPH PRES - MEAN SEA LEVEL PRESSURE IN INCHES OF HG WCI - WIND CHILL INDEX VSB - VISIBILITY IN MILES HX - HEAT INDEX TC - TEMPERATURE IN CELSIUS VRB - VARIABLE WIND DIRECTION N/A - NOT AVAILABLE

USA.gov is the U.S. government's official web portal to all federal, state and local government web resources and services.